Погода в Батманах

Россия / Ивановская область     57°15′47″N   42°18′13″E
темп.,
°C
ветер,
м/с
пор.,
м/с
влажн.,
%
обл.,
%
осадки,
мм/ч
давл.,
гПа
погр.,
м
23 октября, сб
сб2300:00+6зюз7137096 0.0 9991051
03:00+5зюз6137696 0.0 1000904
06:00+4юз6137854 0.0 1000697
09:00+5юз6127799 0.0 10011087
12:00+6юз51071100 0.0 10031346
15:00+6юз5974100 0.0 1003891
18:00+5юз5981100 0.1 1004819
21:00+4зюз6990100 0.2 1004852
24 октября, вс
вс2400:00+4з61195100 0.4 1005756
03:00+4зюз4890100 0.5 1006632
06:00+3зюз4890100 0.0 1007393
09:00+3зюз4896100 0.0 1007540
12:00+3зюз4896100 0.1 1008725
15:00+3з3797100 0.5 1009671
18:00+1сз51197100 0.9 1011616
21:000ссз7128589 1.4 1015938
25 октября, пн
пн2500:00−1ссз6128490 0.0 1018779
03:00−2ссз512865 0.0 1021530
06:00−3сз410885 0.0 1024387
09:00−1сз47795 0.0 1025358
12:00+2зсз455991 0.0 1026781
15:00+2з4763100 0.0 1025980
18:00+1юз41068100 0.0 1024649
21:000юз51393100 0.5 1023710
26 октября, вт
вт2600:00+1юз61375100 0.1 1021623
03:00+1зюз51280100 0.1 1020571
06:00+1зюз5138367 0.0 1018585
09:00+1зюз51386100 0.0 1018469
12:00+4зюз51274100 0.0 1017610
15:00+4зюз5117393 0.0 1016657
18:00+2зюз41284100 0.0 1017368
21:00+2зюз51386100 0.0 1016400
27 октября, ср
ср2700:00+1зюз51287100 0.0 1016376
03:00+1юз51186100 0.0 1015376
06:00+1юз51187100 0.0 1014356
09:00+1юз51285100 0.0 1013449
12:00+4юз61375100 0.0 1011615
15:00+3зюз61286100 0.1 1010704
18:00+2зюз51197100 2.5 1011448
21:00+3зюз51197100 3.0 1011551